| time (UTC) | temp C | wind direction | speed KPH | gust KPH | rain 1hr cm | rain 24hr cm | rain mn cm | humidity % | barometer mb |
| 20260510225849 | 25 | 248 | 0.0 | 4.8 | 0.00 | 0.00 | 0.00 | 38 | 1014.0 |
| 20260510225348 | 26 | 252 | 1.6 | 4.8 | 0.00 | 0.00 | 0.00 | 37 | 1014.0 |
| 20260510224849 | 26 | 236 | 1.6 | 4.8 | 0.00 | 0.00 | 0.00 | 35 | 1014.0 |
| 20260510224347 | 26 | 238 | 1.6 | 4.8 | 0.00 | 0.00 | 0.00 | 35 | 1014.0 |
| 20260510223848 | 26 | 260 | 1.6 | 4.8 | 0.00 | 0.00 | 0.00 | 34 | 1014.0 |
| 20260510223348 | 26 | 218 | 0.0 | 3.2 | 0.00 | 0.00 | 0.00 | 37 | 1014.1 |
| 20260510222847 | 26 | 235 | 1.6 | 6.4 | 0.00 | 0.00 | 0.00 | 35 | 1014.0 |
| 20260510222346 | 26 | 237 | 1.6 | 6.4 | 0.00 | 0.00 | 0.00 | 34 | 1014.0 |
| 20260510221846 | 26 | 240 | 1.6 | 6.4 | 0.00 | 0.00 | 0.00 | 33 | 1014.0 |
| 20260510221347 | 26 | 222 | 1.6 | 6.4 | 0.00 | 0.00 | 0.00 | 33 | 1013.9 |
| 20260510220853 | 26 | 236 | 1.6 | 4.8 | 0.00 | 0.00 | 0.00 | 33 | 1013.9 |
| 20260510220847 | 26 | 240 | 1.6 | 4.8 | 0.00 | 0.00 | 0.00 | 34 | 1013.9 |
| 20260510215846 | 26 | 235 | 1.6 | 4.8 | 0.00 | 0.00 | 0.00 | 32 | 1013.9 |
| 20260510215344 | 26 | 221 | 1.6 | 6.4 | 0.00 | 0.00 | 0.00 | 33 | 1013.9 |
| 20260510214845 | 26 | 250 | 1.6 | 6.4 | 0.00 | 0.00 | 0.00 | 32 | 1013.8 |
| 20260510214344 | 26 | 238 | 1.6 | 6.4 | 0.00 | 0.00 | 0.00 | 34 | 1013.8 |
| 20260510213846 | 26 | 257 | 1.6 | 6.4 | 0.00 | 0.00 | 0.00 | 34 | 1013.8 |
| 20260510213344 | 27 | 242 | 1.6 | 4.8 | 0.00 | 0.00 | 0.00 | 34 | 1013.8 |
| 20260510212846 | 27 | 229 | 1.6 | 4.8 | 0.00 | 0.00 | 0.00 | 32 | 1013.8 |
| 20260510212346 | 27 | 235 | 1.6 | 4.8 | 0.00 | 0.00 | 0.00 | 33 | 1013.8 |
| 20260510211845 | 27 | 257 | 1.6 | 6.4 | 0.00 | 0.00 | 0.00 | 34 | 1013.8 |
| 20260510211349 | 27 | 243 | 0.0 | 6.4 | 0.00 | 0.00 | 0.00 | 31 | 1013.8 |
| 20260510211344 | 27 | 239 | 1.6 | 6.4 | 0.00 | 0.00 | 0.00 | 32 | 1013.8 |
| 20260510211001 | 27 | 250 | 1.6 | 8.0 | 0.00 | 0.00 | 0.00 | 33 | 1013.9 |
| 20260510205842 | 27 | 226 | 1.6 | 8.0 | 0.00 | 0.00 | 0.00 | 32 | 1013.9 |
| 20260510205343 | 27 | 236 | 1.6 | 8.0 | 0.00 | 0.00 | 0.00 | 32 | 1013.8 |
| 20260510204843 | 27 | 257 | 1.6 | 8.0 | 0.00 | 0.00 | 0.00 | 31 | 1013.8 |
| 20260510204342 | 27 | 224 | 1.6 | 6.4 | 0.00 | 0.00 | 0.00 | 35 | 1013.9 |
| 20260510203842 | 27 | 97 | 1.6 | 3.2 | 0.00 | 0.00 | 0.00 | 31 | 1013.9 |
| 20260510203342 | 27 | 79 | 1.6 | 4.8 | 0.00 | 0.00 | 0.00 | 29 | 1013.9 |
| 20260510202849 | 27 | 222 | 1.6 | 8.0 | 0.00 | 0.00 | 0.00 | 31 | 1014.1 |
| 20260510202843 | 27 | 274 | 1.6 | 4.8 | 0.00 | 0.00 | 0.00 | 30 | 1014.0 |
| 20260510201841 | 27 | 225 | 1.6 | 8.0 | 0.00 | 0.00 | 0.00 | 31 | 1014.0 |
| 20260510201342 | 27 | 235 | 0.0 | 8.0 | 0.00 | 0.00 | 0.00 | 31 | 1014.2 |
| 20260510200840 | 27 | 126 | 0.0 | 4.8 | 0.00 | 0.00 | 0.00 | 31 | 1014.2 |
| 20260510200340 | 27 | 238 | 1.6 | 8.0 | 0.00 | 0.00 | 0.00 | 30 | 1014.3 |
| 20260510195842 | 28 | 238 | 1.6 | 8.0 | 0.00 | 0.00 | 0.00 | 30 | 1014.3 |
| 20260510195340 | 28 | 225 | 1.6 | 8.0 | 0.00 | 0.00 | 0.00 | 30 | 1014.3 |
| 20260510194845 | 28 | 226 | 1.6 | 8.0 | 0.00 | 0.00 | 0.00 | 30 | 1014.5 |
| 20260510194840 | 28 | 231 | 1.6 | 8.0 | 0.00 | 0.00 | 0.00 | 31 | 1014.4 |
| 20260510193840 | 28 | 229 | 0.0 | 6.4 | 0.00 | 0.00 | 0.00 | 30 | 1014.5 |
| 20260510193341 | 28 | 6 | 0.0 | 4.8 | 0.00 | 0.00 | 0.00 | 31 | 1014.4 |
| 20260510192844 | 28 | 235 | 1.6 | 6.4 | 0.00 | 0.00 | 0.00 | 30 | 1014.5 |
| 20260510192838 | 28 | 284 | 1.6 | 6.4 | 0.00 | 0.00 | 0.00 | 30 | 1014.4 |
| 20260510191838 | 28 | 229 | 1.6 | 6.4 | 0.00 | 0.00 | 0.00 | 33 | 1014.6 |
| 20260510191339 | 28 | 249 | 1.6 | 6.4 | 0.00 | 0.00 | 0.00 | 32 | 1014.6 |
| 20260510190838 | 27 | 0 | 1.6 | 8.0 | 0.00 | 0.00 | 0.00 | 34 | 1014.6 |
| 20260510190339 | 27 | 229 | 3.2 | 9.7 | 0.00 | 0.00 | 0.00 | 30 | 1014.7 |
| 20260510185840 | 27 | 235 | 3.2 | 9.7 | 0.00 | 0.00 | 0.00 | 29 | 1014.7 |
| 20260510185343 | 28 | 229 | 1.6 | 6.4 | 0.00 | 0.00 | 0.00 | 30 | 1014.7 |
| 20260510185338 | 28 | 233 | 1.6 | 8.0 | 0.00 | 0.00 | 0.00 | 31 | 1014.7 |
| 20260510184956 | 28 | 240 | 1.6 | 6.4 | 0.00 | 0.00 | 0.00 | 30 | 1014.7 |
| 20260510183837 | 28 | 128 | 1.6 | 6.4 | 0.00 | 0.00 | 0.00 | 31 | 1014.7 |
| 20260510183339 | 28 | 259 | 1.6 | 6.4 | 0.00 | 0.00 | 0.00 | 31 | 1014.7 |
| 20260510182841 | 28 | 228 | 1.6 | 4.8 | 0.00 | 0.00 | 0.00 | 32 | 1014.9 |
| 20260510182836 | 28 | 226 | 0.0 | 4.8 | 0.00 | 0.00 | 0.00 | 34 | 1014.7 |
| 20260510181836 | 28 | 232 | 0.0 | 4.8 | 0.00 | 0.00 | 0.00 | 31 | 1014.9 |
| 20260510181337 | 28 | 243 | 0.0 | 3.2 | 0.00 | 0.00 | 0.00 | 30 | 1015.0 |
| 20260510180834 | 28 | 217 | 0.0 | 4.8 | 0.00 | 0.00 | 0.00 | 32 | 1015.1 |
| 20260510180334 | 28 | 250 | 0.0 | 4.8 | 0.00 | 0.00 | 0.00 | 32 | 1015.2 |
| 20260510175836 | 27 | 216 | 0.0 | 4.8 | 0.00 | 0.00 | 0.00 | 31 | 1015.2 |
| 20260510175334 | 27 | 283 | 0.0 | 4.8 | 0.00 | 0.00 | 0.00 | 30 | 1015.2 |
| 20260510174834 | 27 | 84 | 1.6 | 4.8 | 0.00 | 0.00 | 0.00 | 32 | 1015.3 |
| 20260510174335 | 27 | 6 | 1.6 | 4.8 | 0.00 | 0.00 | 0.00 | 34 | 1015.3 |
| 20260510173833 | 28 | 252 | 0.0 | 4.8 | 0.00 | 0.00 | 0.00 | 31 | 1015.4 |
| 20260510173334 | 28 | 117 | 0.0 | 3.2 | 0.00 | 0.00 | 0.00 | 31 | 1015.4 |
| 20260510172834 | 28 | 206 | 0.0 | 4.8 | 0.00 | 0.00 | 0.00 | 35 | 1015.5 |
| 20260510172332 | 27 | 210 | 1.6 | 6.4 | 0.00 | 0.00 | 0.00 | 37 | 1015.6 |
| 20260510171838 | 27 | 253 | 0.0 | 3.2 | 0.00 | 0.00 | 0.00 | 32 | 1015.7 |
| 20260510171833 | 27 | 242 | 1.6 | 6.4 | 0.00 | 0.00 | 0.00 | 32 | 1015.6 |
| 20260510170833 | 28 | 36 | 0.0 | 3.2 | 0.00 | 0.00 | 0.00 | 32 | 1015.7 |
| 20260510170332 | 27 | 236 | 0.0 | 3.2 | 0.00 | 0.00 | 0.00 | 34 | 1015.6 |
| 20260510165834 | 27 | 229 | 1.6 | 6.4 | 0.00 | 0.00 | 0.00 | 32 | 1015.7 |
| 20260510165337 | 27 | 333 | 0.0 | 1.6 | 0.00 | 0.00 | 0.00 | 28 | 1015.7 |
| 20260510165332 | 27 | 235 | 1.6 | 6.4 | 0.00 | 0.00 | 0.00 | 30 | 1015.7 |
| 20260510164331 | 27 | 281 | 0.0 | 3.2 | 0.00 | 0.00 | 0.00 | 30 | 1015.7 |
| 20260510163830 | 27 | 34 | 0.0 | 3.2 | 0.00 | 0.00 | 0.00 | 31 | 1015.7 |
| 20260510163335 | 27 | 51 | 0.0 | 3.2 | 0.00 | 0.00 | 0.00 | 34 | 1015.7 |
| 20260510163330 | 27 | 84 | 0.0 | 3.2 | 0.00 | 0.00 | 0.00 | 37 | 1015.7 |
| 20260510162328 | 27 | 259 | 0.0 | 4.8 | 0.00 | 0.00 | 0.00 | 38 | 1015.7 |
| 20260510161830 | 27 | 222 | 0.0 | 4.8 | 0.00 | 0.00 | 0.00 | 34 | 1015.7 |
| 20260510161330 | 26 | 96 | 0.0 | 1.6 | 0.00 | 0.00 | 0.00 | 35 | 1015.9 |
| 20260510160826 | 26 | 131 | 0.0 | 3.2 | 0.00 | 0.00 | 0.00 | 38 | 1015.9 |
| 20260510160326 | 26 | 79 | 0.0 | 3.2 | 0.00 | 0.00 | 0.00 | 40 | 1015.9 |
| 20260510155826 | 26 | 86 | 0.0 | 3.2 | 0.00 | 0.00 | 0.00 | 42 | 1015.9 |
| 20260510155324 | 26 | 353 | 0.0 | 3.2 | 0.00 | 0.00 | 0.00 | 42 | 1015.9 |
| 20260510154824 | 26 | 84 | 0.0 | 1.6 | 0.00 | 0.00 | 0.00 | 39 | 1015.9 |
| 20260510154324 | 26 | 208 | 0.0 | 4.8 | 0.00 | 0.00 | 0.00 | 39 | 1016.0 |
| 20260510153824 | 26 | 260 | 0.0 | 4.8 | 0.00 | 0.00 | 0.00 | 42 | 1015.9 |
| 20260510153326 | 26 | 232 | 0.0 | 3.2 | 0.00 | 0.00 | 0.00 | 43 | 1016.1 |
| 20260510152829 | 26 | 88 | 0.0 | 1.6 | 0.00 | 0.00 | 0.00 | 43 | 1016.0 |
| 20260510152824 | 25 | 205 | 0.0 | 1.6 | 0.00 | 0.00 | 0.00 | 41 | 1016.1 |
| 20260510151825 | 25 | 113 | 0.0 | 1.6 | 0.00 | 0.00 | 0.00 | 43 | 1016.0 |
| 20260510151326 | 26 | 122 | 0.0 | 1.6 | 0.00 | 0.00 | 0.00 | 45 | 1016.1 |
| 20260510150826 | 26 | 104 | 0.0 | 1.6 | 0.00 | 0.00 | 0.00 | 43 | 1016.0 |
| 20260510150332 | 25 | 281 | 0.0 | 1.6 | 0.00 | 0.00 | 0.00 | 47 | 1016.0 |
| 20260510150326 | 25 | 229 | 0.0 | 1.6 | 0.00 | 0.00 | 0.00 | 47 | 1016.0 |
| 20260510145326 | 25 | 194 | 0.0 | 3.2 | 0.00 | 0.00 | 0.00 | 48 | 1016.0 |
| 20260510144825 | 25 | 195 | 0.0 | 3.2 | 0.00 | 0.00 | 0.00 | 49 | 1016.0 |
| 20260510144326 | 24 | 250 | 0.0 | 1.6 | 0.00 | 0.00 | 0.00 | 50 | 1016.1 |
| 20260510143824 | 24 | 186 | 0.0 | 1.6 | 0.00 | 0.00 | 0.00 | 53 | 1016.1 |
| 20260510143331 | 23 | 233 | 0.0 | 1.6 | 0.00 | 0.00 | 0.00 | 56 | 1016.0 |
| 20260510143325 | 23 | 225 | 0.0 | 1.6 | 0.00 | 0.00 | 0.00 | 53 | 1016.1 |
| 20260510142323 | 23 | 153 | 0.0 | 1.6 | 0.00 | 0.00 | 0.00 | 55 | 1016.1 |
| 20260510141822 | 22 | 188 | 0.0 | 1.6 | 0.00 | 0.00 | 0.00 | 57 | 1016.2 |
| 20260510141323 | 22 | 44 | 0.0 | 1.6 | 0.00 | 0.00 | 0.00 | 61 | 1016.1 |
| 20260510140823 | 22 | 314 | 0.0 | 1.6 | 0.00 | 0.00 | 0.00 | 69 | 1016.1 |
| 20260510140323 | 22 | 101 | 0.0 | 0.0 | 0.00 | 0.00 | 0.00 | 73 | 1016.0 |
| 20260510135823 | 21 | 100 | 0.0 | 1.6 | 0.00 | 0.00 | 0.00 | 74 | 1016.0 |
| 20260510135322 | 21 | 84 | 0.0 | 3.2 | 0.00 | 0.00 | 0.00 | 75 | 1016.0 |
| 20260510134824 | 20 | 86 | 0.0 | 3.2 | 0.00 | 0.00 | 0.00 | 79 | 1016.1 |
| 20260510134323 | 19 | 139 | 0.0 | 1.6 | 0.00 | 0.00 | 0.00 | 87 | 1016.1 |
| 20260510133829 | 17 | 145 | 0.0 | 1.6 | 0.00 | 0.00 | 0.00 | 92 | 1015.8 |
| 20260510133824 | 18 | 145 | 0.0 | 1.6 | 0.00 | 0.00 | 0.00 | 91 | 1016.0 |
| 20260510132939 | 16 | 225 | 0.0 | 0.0 | 0.00 | 0.00 | 0.00 | 93 | 1015.8 |
| 20260510132826 | 16 | 226 | 0.0 | 0.0 | 0.00 | 0.00 | 0.00 | 93 | 1015.9 |
| 20260510132821 | 16 | 183 | 0.0 | 1.6 | 0.00 | 0.00 | 0.00 | 92 | 1015.8 |
| 20260510131321 | 15 | 225 | 0.0 | 1.6 | 0.00 | 0.00 | 0.00 | 93 | 1015.8 |
| 20260510130820 | 15 | 225 | 0.0 | 1.6 | 0.00 | 0.00 | 0.00 | 93 | 1015.8 |
| 20260510130320 | 15 | 235 | 0.0 | 1.6 | 0.00 | 0.00 | 0.00 | 93 | 1015.9 |
| 20260510125823 | 15 | 235 | 0.0 | 1.6 | 0.00 | 0.00 | 0.00 | 93 | 1015.8 |
| 20260510125818 | 15 | 235 | 0.0 | 0.0 | 0.00 | 0.00 | 0.00 | 93 | 1015.9 |
| 20260510125315 | 14 | 235 | 0.0 | 1.6 | 0.00 | 0.00 | 0.00 | 93 | 1015.7 |
| 20260510124317 | 14 | 235 | 0.0 | 0.0 | 0.00 | 0.00 | 0.00 | 93 | 1015.8 |
| 20260510123815 | 13 | 235 | 0.0 | 0.0 | 0.00 | 0.00 | 0.00 | 93 | 1015.7 |
| 20260510123320 | 13 | 235 | 0.0 | 0.0 | 0.00 | 0.00 | 0.00 | 93 | 1015.6 |
| 20260510123315 | 13 | 236 | 0.0 | 0.0 | 0.00 | 0.00 | 0.00 | 93 | 1015.7 |
| 20260510122314 | 13 | 235 | 0.0 | 0.0 | 0.00 | 0.00 | 0.00 | 93 | 1015.5 |
| 20260510121815 | 13 | 235 | 0.0 | 0.0 | 0.00 | 0.00 | 0.00 | 93 | 1015.4 |
| 20260510121312 | 13 | 235 | 0.0 | 0.0 | 0.00 | 0.00 | 0.00 | 92 | 1015.3 |
| 20260510120813 | 12 | 235 | 0.0 | 0.0 | 0.00 | 0.00 | 0.00 | 92 | 1015.2 |
| 20260510120314 | 12 | 235 | 0.0 | 0.0 | 0.00 | 0.00 | 0.00 | 92 | 1015.1 |
| 20260510115811 | 12 | 235 | 0.0 | 0.0 | 0.00 | 0.00 | 0.00 | 92 | 1015.0 |
| 20260510115312 | 12 | 235 | 0.0 | 0.0 | 0.00 | 0.00 | 0.00 | 92 | 1014.7 |
| 20260510114811 | 12 | 235 | 0.0 | 0.0 | 0.00 | 0.00 | 0.00 | 92 | 1014.6 |
| 20260510114311 | 12 | 236 | 0.0 | 0.0 | 0.00 | 0.00 | 0.00 | 92 | 1014.5 |
| 20260510113810 | 12 | 235 | 0.0 | 0.0 | 0.00 | 0.00 | 0.00 | 92 | 1014.6 |
| 20260510113310 | 12 | 235 | 0.0 | 0.0 | 0.00 | 0.00 | 0.00 | 92 | 1014.5 |
| 20260510112810 | 12 | 235 | 0.0 | 0.0 | 0.00 | 0.00 | 0.00 | 92 | 1014.5 |
| 20260510112312 | 12 | 235 | 0.0 | 0.0 | 0.00 | 0.00 | 0.00 | 92 | 1014.4 |
| 20260510111808 | 12 | 235 | 0.0 | 0.0 | 0.00 | 0.00 | 0.00 | 92 | 1014.3 |
| 20260510111310 | 12 | 235 | 0.0 | 0.0 | 0.00 | 0.00 | 0.00 | 92 | 1014.3 |
| 20260510110808 | 12 | 235 | 0.0 | 0.0 | 0.00 | 0.00 | 0.00 | 92 | 1014.2 |
| 20260510110309 | 12 | 235 | 0.0 | 1.6 | 0.00 | 0.00 | 0.00 | 92 | 1014.2 |
| 20260510105806 | 12 | 235 | 0.0 | 1.6 | 0.00 | 0.00 | 0.00 | 92 | 1014.0 |
| 20260510105308 | 12 | 235 | 0.0 | 0.0 | 0.00 | 0.00 | 0.00 | 92 | 1013.9 |
| 20260510104809 | 12 | 235 | 0.0 | 0.0 | 0.00 | 0.00 | 0.00 | 92 | 1013.9 |
| 20260510104306 | 12 | 235 | 0.0 | 0.0 | 0.00 | 0.00 | 0.00 | 92 | 1013.8 |
| 20260510103807 | 12 | 235 | 0.0 | 0.0 | 0.00 | 0.00 | 0.00 | 92 | 1013.7 |
| 20260510103311 | 12 | 235 | 0.0 | 0.0 | 0.00 | 0.00 | 0.00 | 92 | 1013.5 |
| 20260510103305 | 12 | 235 | 0.0 | 0.0 | 0.00 | 0.00 | 0.00 | 92 | 1013.5 |
| 20260510102805 | 12 | 235 | 0.0 | 0.0 | 0.00 | 0.00 | 0.00 | 92 | 1013.5 |
| 20260510101803 | 12 | 235 | 0.0 | 0.0 | 0.00 | 0.00 | 0.00 | 92 | 1013.4 |
| 20260510101303 | 12 | 235 | 0.0 | 0.0 | 0.00 | 0.00 | 0.00 | 92 | 1013.4 |
| 20260510100803 | 12 | 235 | 0.0 | 0.0 | 0.00 | 0.00 | 0.00 | 92 | 1013.3 |
| 20260510100302 | 12 | 235 | 0.0 | 0.0 | 0.00 | 0.00 | 0.00 | 92 | 1013.3 |
| 20260510095802 | 12 | 235 | 0.0 | 0.0 | 0.00 | 0.00 | 0.00 | 92 | 1013.2 |
| 20260510095305 | 12 | 235 | 0.0 | 0.0 | 0.00 | 0.00 | 0.00 | 92 | 1013.2 |
| 20260510094805 | 12 | 235 | 0.0 | 0.0 | 0.00 | 0.00 | 0.00 | 92 | 1013.0 |
| 20260510094302 | 12 | 235 | 0.0 | 0.0 | 0.00 | 0.00 | 0.00 | 92 | 1012.9 |
| 20260510093803 | 12 | 236 | 0.0 | 0.0 | 0.00 | 0.00 | 0.00 | 92 | 1012.9 |
| 20260510093303 | 13 | 235 | 0.0 | 0.0 | 0.00 | 0.00 | 0.00 | 92 | 1012.9 |
| 20260510092803 | 13 | 236 | 0.0 | 0.0 | 0.00 | 0.00 | 0.00 | 92 | 1012.9 |
| 20260510092306 | 13 | 235 | 0.0 | 0.0 | 0.00 | 0.00 | 0.00 | 92 | 1012.8 |
| 20260510091800 | 13 | 235 | 0.0 | 0.0 | 0.00 | 0.00 | 0.00 | 92 | 1012.9 |
| 20260510091300 | 13 | 235 | 0.0 | 0.0 | 0.00 | 0.00 | 0.00 | 92 | 1012.8 |
| 20260510090759 | 13 | 234 | 0.0 | 0.0 | 0.00 | 0.00 | 0.00 | 92 | 1012.7 |
| 20260510090303 | 13 | 235 | 0.0 | 0.0 | 0.00 | 0.00 | 0.00 | 92 | 1012.6 |
| 20260510090259 | 13 | 235 | 0.0 | 0.0 | 0.00 | 0.00 | 0.00 | 92 | 1012.6 |
| 20260510085257 | 13 | 234 | 0.0 | 0.0 | 0.00 | 0.00 | 0.00 | 92 | 1012.6 |
| 20260510084801 | 13 | 235 | 0.0 | 1.6 | 0.00 | 0.00 | 0.00 | 91 | 1012.5 |
| 20260510084757 | 13 | 235 | 0.0 | 1.6 | 0.00 | 0.00 | 0.00 | 92 | 1012.5 |
| 20260510083756 | 13 | 235 | 0.0 | 1.6 | 0.00 | 0.00 | 0.00 | 91 | 1012.4 |
| 20260510083257 | 13 | 235 | 0.0 | 0.0 | 0.00 | 0.00 | 0.00 | 91 | 1012.3 |
| 20260510082802 | 13 | 235 | 0.0 | 0.0 | 0.00 | 0.00 | 0.00 | 91 | 1012.2 |
| 20260510082757 | 13 | 235 | 0.0 | 0.0 | 0.00 | 0.00 | 0.00 | 91 | 1012.3 |
| 20260510081755 | 13 | 235 | 0.0 | 0.0 | 0.00 | 0.00 | 0.00 | 91 | 1012.2 |
| 20260510081254 | 14 | 235 | 0.0 | 0.0 | 0.00 | 0.00 | 0.00 | 91 | 1012.1 |
| 20260510080756 | 14 | 235 | 0.0 | 0.0 | 0.00 | 0.00 | 0.00 | 91 | 1012.1 |
| 20260510080254 | 14 | 235 | 0.0 | 0.0 | 0.00 | 0.00 | 0.00 | 91 | 1012.2 |
| 20260510075755 | 14 | 235 | 0.0 | 0.0 | 0.00 | 0.00 | 0.00 | 91 | 1012.2 |
| 20260510075257 | 14 | 235 | 0.0 | 0.0 | 0.00 | 0.00 | 0.00 | 91 | 1012.0 |
| 20260510074756 | 14 | 235 | 0.0 | 0.0 | 0.00 | 0.00 | 0.00 | 91 | 1011.9 |
| 20260510074301 | 14 | 235 | 0.0 | 0.0 | 0.00 | 0.00 | 0.00 | 91 | 1011.8 |
| 20260510074256 | 14 | 235 | 0.0 | 0.0 | 0.00 | 0.00 | 0.00 | 91 | 1011.9 |
| 20260510073254 | 14 | 235 | 0.0 | 0.0 | 0.00 | 0.00 | 0.00 | 91 | 1011.8 |
| 20260510072752 | 14 | 235 | 0.0 | 0.0 | 0.00 | 0.00 | 0.00 | 91 | 1011.9 |
| 20260510072251 | 14 | 235 | 0.0 | 0.0 | 0.00 | 0.00 | 0.00 | 91 | 1011.7 |
| 20260510071750 | 14 | 235 | 0.0 | 0.0 | 0.00 | 0.00 | 0.00 | 91 | 1011.6 |
| 20260510071251 | 14 | 235 | 0.0 | 0.0 | 0.00 | 0.00 | 0.00 | 91 | 1011.6 |
| 20260510070755 | 14 | 235 | 0.0 | 0.0 | 0.00 | 0.00 | 0.00 | 91 | 1011.6 |
| 20260510070750 | 14 | 235 | 0.0 | 0.0 | 0.00 | 0.00 | 0.00 | 91 | 1011.6 |
| 20260510065752 | 14 | 235 | 0.0 | 0.0 | 0.00 | 0.00 | 0.00 | 91 | 1011.6 |
| 20260510065251 | 14 | 235 | 0.0 | 0.0 | 0.00 | 0.00 | 0.00 | 91 | 1011.6 |
| 20260510064756 | 15 | 235 | 0.0 | 0.0 | 0.00 | 0.00 | 0.00 | 91 | 1011.6 |
| 20260510064751 | 14 | 235 | 0.0 | 0.0 | 0.00 | 0.00 | 0.00 | 91 | 1011.7 |
| 20260510064248 | 15 | 235 | 0.0 | 0.0 | 0.00 | 0.00 | 0.00 | 91 | 1011.7 |
| 20260510063247 | 15 | 235 | 0.0 | 0.0 | 0.00 | 0.00 | 0.00 | 91 | 1011.6 |
| 20260510062747 | 15 | 234 | 0.0 | 0.0 | 0.00 | 0.00 | 0.00 | 91 | 1011.6 |
| 20260510062247 | 15 | 235 | 0.0 | 0.0 | 0.00 | 0.00 | 0.00 | 91 | 1011.7 |
| 20260510061746 | 15 | 235 | 0.0 | 0.0 | 0.00 | 0.00 | 0.00 | 91 | 1011.7 |
| 20260510061251 | 15 | 235 | 0.0 | 0.0 | 0.00 | 0.00 | 0.00 | 91 | 1011.7 |
| 20260510061246 | 15 | 235 | 0.0 | 0.0 | 0.00 | 0.00 | 0.00 | 91 | 1011.7 |
| 20260510060247 | 15 | 235 | 0.0 | 1.6 | 0.00 | 0.00 | 0.00 | 91 | 1011.7 |
| 20260510055747 | 15 | 234 | 0.0 | 1.6 | 0.00 | 0.00 | 0.00 | 91 | 1011.8 |
| 20260510055245 | 15 | 235 | 0.0 | 1.6 | 0.00 | 0.00 | 0.00 | 90 | 1011.9 |
| 20260510054746 | 15 | 235 | 0.0 | 1.6 | 0.00 | 0.00 | 0.00 | 90 | 1011.8 |
| 20260510054244 | 15 | 234 | 0.0 | 1.6 | 0.00 | 0.00 | 0.00 | 90 | 1011.8 |
| 20260510053746 | 16 | 235 | 0.0 | 1.6 | 0.00 | 0.00 | 0.00 | 90 | 1011.8 |
| 20260510053243 | 16 | 235 | 0.0 | 1.6 | 0.00 | 0.00 | 0.00 | 90 | 1011.9 |
| 20260510052742 | 16 | 235 | 0.0 | 1.6 | 0.00 | 0.00 | 0.00 | 90 | 1011.9 |
| 20260510052244 | 16 | 235 | 0.0 | 1.6 | 0.00 | 0.00 | 0.00 | 90 | 1011.9 |
| 20260510051741 | 16 | 235 | 0.0 | 1.6 | 0.00 | 0.00 | 0.00 | 89 | 1012.0 |
| 20260510051240 | 16 | 235 | 0.0 | 0.0 | 0.00 | 0.00 | 0.00 | 89 | 1012.0 |
| 20260510050741 | 16 | 235 | 0.0 | 1.6 | 0.00 | 0.00 | 0.00 | 89 | 1012.2 |
| 20260510050244 | 16 | 235 | 0.0 | 1.6 | 0.00 | 0.00 | 0.00 | 89 | 1012.2 |
| 20260510050240 | 16 | 235 | 0.0 | 1.6 | 0.00 | 0.00 | 0.00 | 89 | 1012.2 |
| 20260510045238 | 16 | 233 | 0.0 | 1.6 | 0.00 | 0.00 | 0.00 | 89 | 1012.2 |
| 20260510044737 | 16 | 240 | 0.0 | 1.6 | 0.00 | 0.00 | 0.00 | 89 | 1012.1 |
| 20260510044237 | 16 | 251 | 0.0 | 1.6 | 0.00 | 0.00 | 0.00 | 89 | 1012.1 |
| 20260510043736 | 16 | 233 | 0.0 | 1.6 | 0.00 | 0.00 | 0.00 | 89 | 1012.1 |
| 20260510043238 | 16 | 233 | 0.0 | 1.6 | 0.00 | 0.00 | 0.00 | 89 | 1012.2 |
| 20260510042737 | 16 | 233 | 1.6 | 3.2 | 0.00 | 0.00 | 0.00 | 90 | 1012.1 |
| 20260510042242 | 16 | 235 | 0.0 | 3.2 | 0.00 | 0.00 | 0.00 | 90 | 1012.2 |
| 20260510042237 | 16 | 233 | 1.6 | 3.2 | 0.00 | 0.00 | 0.00 | 90 | 1012.3 |
| 20260510041236 | 16 | 238 | 0.0 | 1.6 | 0.00 | 0.00 | 0.00 | 90 | 1012.4 |
| 20260510040738 | 16 | 229 | 0.0 | 1.6 | 0.00 | 0.00 | 0.00 | 90 | 1012.4 |
| 20260510040236 | 16 | 229 | 0.0 | 0.0 | 0.00 | 0.00 | 0.00 | 89 | 1012.2 |
| 20260510035735 | 16 | 229 | 0.0 | 0.0 | 0.00 | 0.00 | 0.00 | 89 | 1012.3 |
| 20260510035241 | 16 | 229 | 0.0 | 0.0 | 0.00 | 0.00 | 0.00 | 89 | 1012.3 |
| 20260510035236 | 16 | 229 | 0.0 | 0.0 | 0.00 | 0.00 | 0.00 | 89 | 1012.3 |
| 20260510034234 | 16 | 229 | 0.0 | 0.0 | 0.00 | 0.00 | 0.00 | 89 | 1012.3 |
| 20260510033740 | 16 | 229 | 0.0 | 0.0 | 0.00 | 0.00 | 0.00 | 88 | 1012.3 |
| 20260510033734 | 16 | 229 | 0.0 | 0.0 | 0.00 | 0.00 | 0.00 | 89 | 1012.3 |
| 20260510032737 | 17 | 229 | 0.0 | 0.0 | 0.00 | 0.00 | 0.00 | 88 | 1012.2 |
| 20260510032234 | 17 | 229 | 0.0 | 0.0 | 0.00 | 0.00 | 0.00 | 88 | 1012.2 |
| 20260510031736 | 17 | 229 | 0.0 | 0.0 | 0.00 | 0.00 | 0.00 | 88 | 1012.2 |
| 20260510031234 | 17 | 229 | 0.0 | 1.6 | 0.00 | 0.00 | 0.00 | 87 | 1012.1 |
| 20260510030739 | 17 | 229 | 0.0 | 1.6 | 0.00 | 0.00 | 0.00 | 86 | 1012.1 |
| 20260510030734 | 17 | 229 | 0.0 | 1.6 | 0.00 | 0.00 | 0.00 | 87 | 1012.2 |
| 20260510025736 | 18 | 229 | 0.0 | 1.6 | 0.00 | 0.00 | 0.00 | 86 | 1012.2 |
| 20260510025237 | 18 | 229 | 0.0 | 0.0 | 0.00 | 0.00 | 0.00 | 85 | 1012.1 |
| 20260510024735 | 18 | 229 | 0.0 | 0.0 | 0.00 | 0.00 | 0.00 | 85 | 1012.1 |
| 20260510024236 | 18 | 229 | 0.0 | 0.0 | 0.00 | 0.00 | 0.00 | 85 | 1012.1 |
| 20260510023736 | 18 | 229 | 0.0 | 3.2 | 0.00 | 0.00 | 0.00 | 85 | 1012.1 |
| 20260510023234 | 18 | 229 | 0.0 | 3.2 | 0.00 | 0.00 | 0.00 | 84 | 1012.1 |
| 20260510022733 | 18 | 229 | 0.0 | 1.6 | 0.00 | 0.00 | 0.00 | 84 | 1011.9 |
| 20260510022231 | 18 | 229 | 0.0 | 1.6 | 0.00 | 0.00 | 0.00 | 84 | 1011.9 |
| 20260510021730 | 18 | 228 | 0.0 | 1.6 | 0.00 | 0.00 | 0.00 | 84 | 1011.9 |
| 20260510021230 | 18 | 226 | 0.0 | 0.0 | 0.00 | 0.00 | 0.00 | 84 | 1011.9 |
| 20260510020731 | 18 | 226 | 0.0 | 0.0 | 0.00 | 0.00 | 0.00 | 84 | 1011.8 |
| 20260510020231 | 18 | 226 | 0.0 | 0.0 | 0.00 | 0.00 | 0.00 | 83 | 1011.9 |
| 20260510015732 | 19 | 226 | 0.0 | 0.0 | 0.00 | 0.00 | 0.00 | 83 | 1011.7 |
| 20260510015231 | 19 | 226 | 0.0 | 1.6 | 0.00 | 0.00 | 0.00 | 82 | 1011.6 |
| 20260510014731 | 19 | 226 | 0.0 | 1.6 | 0.00 | 0.00 | 0.00 | 82 | 1011.6 |
| 20260510014231 | 19 | 226 | 0.0 | 3.2 | 0.00 | 0.00 | 0.00 | 82 | 1011.5 |
| 20260510013733 | 19 | 226 | 0.0 | 3.2 | 0.00 | 0.00 | 0.00 | 82 | 1011.6 |
| 20260510013228 | 19 | 232 | 0.0 | 1.6 | 0.00 | 0.00 | 0.00 | 82 | 1011.4 |
| 20260510012730 | 19 | 232 | 0.0 | 3.2 | 0.00 | 0.00 | 0.00 | 81 | 1011.3 |
| 20260510012228 | 19 | 232 | 1.6 | 3.2 | 0.00 | 0.00 | 0.00 | 81 | 1011.3 |
| 20260510011727 | 19 | 231 | 1.6 | 3.2 | 0.00 | 0.00 | 0.00 | 81 | 1011.3 |
| 20260510011227 | 19 | 235 | 0.0 | 3.2 | 0.00 | 0.00 | 0.00 | 81 | 1011.2 |
| 20260510010730 | 19 | 232 | 0.0 | 3.2 | 0.00 | 0.00 | 0.00 | 81 | 1011.1 |
| 20260510010725 | 19 | 232 | 0.0 | 3.2 | 0.00 | 0.00 | 0.00 | 81 | 1011.1 |
| 20260510010344 | 19 | 232 | 1.6 | 3.2 | 0.00 | 0.00 | 0.00 | 82 | 1011.0 |
| 20260510005842 | 19 | 225 | 1.6 | 3.2 | 0.00 | 0.00 | 0.00 | 82 | 1010.7 |
| 20260510004724 | 19 | 219 | 1.6 | 3.2 | 0.00 | 0.00 | 0.00 | 82 | 1010.9 |
| 20260510004226 | 19 | 233 | 0.0 | 1.6 | 0.00 | 0.00 | 0.00 | 81 | 1010.7 |
| 20260510003725 | 19 | 233 | 0.0 | 0.0 | 0.00 | 0.00 | 0.00 | 81 | 1010.6 |
| 20260510003225 | 19 | 233 | 0.0 | 1.6 | 0.00 | 0.00 | 0.00 | 81 | 1010.4 |
| 20260510002724 | 20 | 233 | 0.0 | 1.6 | 0.00 | 0.00 | 0.00 | 80 | 1010.3 |
| 20260510002225 | 20 | 233 | 0.0 | 1.6 | 0.00 | 0.00 | 0.00 | 79 | 1010.2 |
| 20260510001729 | 20 | 233 | 0.0 | 3.2 | 0.00 | 0.00 | 0.00 | 78 | 1010.1 |
| 20260510001725 | 20 | 233 | 0.0 | 1.6 | 0.00 | 0.00 | 0.00 | 78 | 1010.1 |
| 20260510000724 | 20 | 233 | 0.0 | 3.2 | 0.00 | 0.00 | 0.00 | 77 | 1010.1 |
| 20260510000226 | 20 | 226 | 0.0 | 3.2 | 0.00 | 0.00 | 0.00 | 77 | 1010.0 |
| 20260509235845 | 20 | 226 | 1.6 | 3.2 | 0.00 | 0.00 | 0.00 | 76 | 1009.9 |
| 20260509235730 | 20 | 226 | 1.6 | 3.2 | 0.00 | 0.00 | 0.00 | 76 | 1010.0 |
| 20260509235725 | 20 | 228 | 0.0 | 3.2 | 0.00 | 0.00 | 0.00 | 77 | 1010.0 |
| 20260509234841 | 20 | 232 | 1.6 | 3.2 | 0.00 | 0.00 | 0.00 | 76 | 1009.9 |
| 20260509233727 | 20 | 232 | 0.0 | 3.2 | 0.00 | 0.00 | 0.00 | 75 | 1009.8 |
| 20260509233225 | 21 | 233 | 0.0 | 3.2 | 0.00 | 0.00 | 0.00 | 75 | 1009.8 |
| 20260509232725 | 21 | 248 | 0.0 | 3.2 | 0.00 | 0.00 | 0.00 | 75 | 1009.9 |
| 20260509232227 | 21 | 225 | 1.6 | 4.8 | 0.00 | 0.00 | 0.00 | 75 | 1009.8 |
| 20260509231725 | 21 | 250 | 1.6 | 8.0 | 0.00 | 0.00 | 0.00 | 75 | 1009.8 |
| 20260509231224 | 21 | 229 | 1.6 | 8.0 | 0.00 | 0.00 | 0.00 | 75 | 1009.8 |
| 20260509230725 | 21 | 225 | 1.6 | 4.8 | 0.00 | 0.00 | 0.00 | 75 | 1009.9 |
| 20260509230230 | 21 | 36 | 0.0 | 3.2 | 0.00 | 0.00 | 0.00 | 75 | 1009.6 |
| 20260509230225 | 21 | 257 | 1.6 | 3.2 | 0.00 | 0.00 | 0.00 | 75 | 1009.8 |